Hourly Weather Lukino

Today, 7 May, Friday

Time Temperature Precipitation Wind Pressure Humidity
00:00 +13°C° 0 mm 4 mps 745 mmHg 66%
01:00 +12°C° 0 mm 5 mps 745 mmHg 67%
02:00 +12°C° 0 mm 5 mps 744 mmHg 68%
03:00 +12°C° 0 mm 5 mps 744 mmHg 69%
04:00 +12°C° 0 mm 5 mps 744 mmHg 71%
05:00 +12°C° 0 mm 5 mps 744 mmHg 74%
06:00 +10°C° 0 mm 5 mps 744 mmHg 76%
07:00 +10°C° 1 mm 5 mps 744 mmHg 82%
08:00 +9°C° 1 mm 5 mps 745 mmHg 87%
09:00 +8°C° 1 mm 5 mps 745 mmHg 93%
10:00 +8°C° 0.4 mm 4 mps 746 mmHg 91%
11:00 +8°C° 0.4 mm 4 mps 746 mmHg 88%
12:00 +9°C° 0.4 mm 3 mps 747 mmHg 86%
13:00 +10°C° 0 mm 4 mps 747 mmHg 79%
14:00 +11°C° 0 mm 4 mps 747 mmHg 72%
15:00 +12°C° 0 mm 4 mps 748 mmHg 64%
16:00 +12°C° 0 mm 4 mps 748 mmHg 64%
17:00 +12°C° 0 mm 3 mps 748 mmHg 64%
18:00 +13°C° 0 mm 2 mps 748 mmHg 63%
19:00 +12°C° 0 mm 2 mps 748 mmHg 68%
20:00 +10°C° 0 mm 1 mps 749 mmHg 72%
21:00 +9°C° 0 mm 1 mps 749 mmHg 77%
22:00 +8°C° 0 mm 1 mps 749 mmHg 80%
23:00 +7°C° 0 mm 2 mps 749 mmHg 83%

Tomorrow, 8 May, Saturday

Time Temperature Precipitation Wind Pressure Humidity
00:00 +6°C° 0 mm 2 mps 749 mmHg 86%
01:00 +6°C° 0 mm 2 mps 749 mmHg 87%
02:00 +6°C° 0 mm 2 mps 749 mmHg 88%
03:00 +5°C° 0 mm 2 mps 749 mmHg 90%
04:00 +6°C° 0 mm 2 mps 749 mmHg 88%
05:00 +6°C° 0 mm 2 mps 749 mmHg 87%
06:00 +7°C° 0 mm 2 mps 748 mmHg 86%
07:00 +8°C° 0 mm 3 mps 748 mmHg 79%
08:00 +10°C° 0 mm 3 mps 748 mmHg 72%
09:00 +11°C° 0 mm 4 mps 748 mmHg 65%
10:00 +13°C° 0 mm 4 mps 747 mmHg 60%
11:00 +14°C° 0 mm 5 mps 747 mmHg 56%
12:00 +15°C° 0 mm 5 mps 746 mmHg 51%
13:00 +16°C° 0 mm 6 mps 746 mmHg 52%
14:00 +16°C° 0 mm 6 mps 745 mmHg 54%
15:00 +16°C° 0 mm 7 mps 745 mmHg 55%
16:00 +16°C° 0 mm 6 mps 745 mmHg 61%
17:00 +15°C° 0 mm 5 mps 744 mmHg 68%
18:00 +14°C° 0 mm 4 mps 744 mmHg 74%
19:00 +14°C° 0.2 mm 4 mps 744 mmHg 78%
20:00 +13°C° 0.2 mm 5 mps 743 mmHg 82%
21:00 +13°C° 0.2 mm 5 mps 743 mmHg 85%
22:00 +13°C° 0.3 mm 4 mps 743 mmHg 89%
23:00 +12°C° 0.3 mm 3 mps 743 mmHg 92%

Day after tomorrow, 9 May, Sunday

Time Temperature Precipitation Wind Pressure Humidity
00:00 +12°C° 0.3 mm 3 mps 743 mmHg 96%
01:00 +11°C° 0.2 mm 3 mps 743 mmHg 95%
02:00 +11°C° 0.2 mm 4 mps 744 mmHg 94%
03:00 +9°C° 0.2 mm 5 mps 744 mmHg 93%
04:00 +8°C° 0.1 mm 5 mps 745 mmHg 92%
05:00 +8°C° 0.1 mm 4 mps 745 mmHg 92%
06:00 +7°C° 0.1 mm 4 mps 746 mmHg 91%
07:00 +7°C° 0 mm 4 mps 746 mmHg 88%
08:00 +7°C° 0 mm 4 mps 746 mmHg 86%
09:00 +7°C° 0 mm 4 mps 746 mmHg 83%
10:00 +7°C° 0.5 mm 5 mps 747 mmHg 83%
11:00 +7°C° 0.5 mm 5 mps 747 mmHg 82%
12:00 +7°C° 0.5 mm 6 mps 748 mmHg 82%
13:00 +7°C° 1 mm 6 mps 748 mmHg 84%
14:00 +7°C° 1 mm 6 mps 749 mmHg 85%
15:00 +7°C° 1 mm 6 mps 749 mmHg 87%
16:00 +5°C° 0.8 mm 6 mps 749 mmHg 88%
17:00 +6°C° 0.8 mm 5 mps 750 mmHg 88%
18:00 +6°C° 0.8 mm 5 mps 750 mmHg 89%
19:00 +6°C° 0.4 mm 5 mps 751 mmHg 89%
20:00 +6°C° 0.4 mm 5 mps 751 mmHg 90%
21:00 +6°C° 0.4 mm 5 mps 752 mmHg 90%
22:00 +5°C° 0 mm 5 mps 752 mmHg 90%
23:00 +4°C° 0 mm 6 mps 752 mmHg 90%

10 May, Monday

Time Temperature Precipitation Wind Pressure Humidity
00:00 +4°C° 0 mm 6 mps 752 mmHg 90%
01:00 +4°C° 0 mm 6 mps 752 mmHg 90%
02:00 +3°C° 0 mm 7 mps 753 mmHg 90%
03:00 +3°C° 0 mm 7 mps 753 mmHg 90%
04:00 +3°C° 0 mm 7 mps 753 mmHg 89%
05:00 +3°C° 0 mm 7 mps 754 mmHg 88%
06:00 +4°C° 0 mm 8 mps 754 mmHg 86%
07:00 +4°C° 0 mm 8 mps 754 mmHg 85%
08:00 +4°C° 0 mm 8 mps 755 mmHg 84%
09:00 +4°C° 0 mm 8 mps 755 mmHg 83%
10:00 +5°C° 0 mm 8 mps 755 mmHg 83%
11:00 +5°C° 0 mm 8 mps 755 mmHg 83%
12:00 +5°C° 0 mm 8 mps 755 mmHg 83%
13:00 +7°C° 0 mm 8 mps 755 mmHg 79%
14:00 +9°C° 0 mm 8 mps 755 mmHg 75%
15:00 +10°C° 0 mm 8 mps 756 mmHg 71%
16:00 +10°C° 0 mm 8 mps 756 mmHg 72%
17:00 +11°C° 0 mm 7 mps 756 mmHg 72%
18:00 +11°C° 0 mm 7 mps 756 mmHg 73%
19:00 +10°C° 0 mm 7 mps 756 mmHg 74%
20:00 +9°C° 0 mm 7 mps 756 mmHg 74%
21:00 +9°C° 0 mm 7 mps 756 mmHg 75%
22:00 +8°C° 0 mm 7 mps 756 mmHg 76%
23:00 +8°C° 0 mm 6 mps 756 mmHg 77%

11 May, Tuesday

Time Temperature Precipitation Wind Pressure Humidity
00:00 +7°C° 0 mm 6 mps 756 mmHg 79%
01:00 +7°C° 0 mm 6 mps 756 mmHg 79%
02:00 +6°C° 0 mm 7 mps 756 mmHg 80%
03:00 +6°C° 0 mm 7 mps 755 mmHg 81%
04:00 +6°C° 0 mm 7 mps 756 mmHg 80%
05:00 +6°C° 0 mm 7 mps 756 mmHg 80%
06:00 +8°C° 0 mm 7 mps 756 mmHg 79%
07:00 +9°C° 0 mm 7 mps 756 mmHg 77%
08:00 +10°C° 0 mm 7 mps 756 mmHg 75%
09:00 +11°C° 0 mm 7 mps 756 mmHg 73%
10:00 +14°C° 0 mm 7 mps 756 mmHg 71%
11:00 +15°C° 0 mm 7 mps 756 mmHg 69%
12:00 +17°C° 0 mm 7 mps 756 mmHg 66%
13:00 +17°C° 0 mm 6 mps 756 mmHg 66%
14:00 +19°C° 0 mm 6 mps 756 mmHg 66%
15:00 +20°C° 0 mm 6 mps 755 mmHg 66%
16:00 +18°C° 0 mm 7 mps 755 mmHg 68%
17:00 +18°C° 0 mm 7 mps 755 mmHg 69%
18:00 +18°C° 0 mm 7 mps 755 mmHg 71%
19:00 +16°C° 0.2 mm 6 mps 755 mmHg 76%
20:00 +15°C° 0.2 mm 4 mps 756 mmHg 81%
21:00 +14°C° 0.2 mm 3 mps 756 mmHg 86%
22:00 +13°C° 0.1 mm 4 mps 756 mmHg 84%
23:00 +13°C° 0.1 mm 4 mps 755 mmHg 82%

12 May, Wednesday

Time Temperature Precipitation Wind Pressure Humidity
00:00 +12°C° 0.1 mm 5 mps 755 mmHg 80%
01:00 +12°C° 0.1 mm 5 mps 755 mmHg 79%
02:00 +10°C° 0.1 mm 5 mps 754 mmHg 78%
03:00 +10°C° 0.1 mm 5 mps 754 mmHg 78%
04:00 +10°C° 0.1 mm 5 mps 754 mmHg 78%
05:00 +10°C° 0.1 mm 5 mps 754 mmHg 78%
06:00 +10°C° 0.1 mm 5 mps 754 mmHg 78%
07:00 +12°C° 0 mm 5 mps 754 mmHg 75%
08:00 +13°C° 0 mm 6 mps 754 mmHg 71%
09:00 +14°C° 0 mm 6 mps 754 mmHg 68%
10:00 +16°C° 0 mm 6 mps 754 mmHg 67%
11:00 +17°C° 0 mm 6 mps 754 mmHg 66%
12:00 +19°C° 0 mm 6 mps 754 mmHg 65%
13:00 +19°C° 0 mm 6 mps 754 mmHg 68%
14:00 +19°C° 0 mm 5 mps 754 mmHg 70%
15:00 +17°C° 0 mm 5 mps 754 mmHg 72%
16:00 +17°C° 0 mm 5 mps 754 mmHg 74%
17:00 +17°C° 0 mm 5 mps 753 mmHg 76%
18:00 +19°C° 0 mm 4 mps 753 mmHg 78%
19:00 +18°C° 0 mm 4 mps 753 mmHg 77%
20:00 +17°C° 0 mm 4 mps 753 mmHg 77%
21:00 +16°C° 0 mm 5 mps 753 mmHg 76%
22:00 +15°C° 0 mm 5 mps 753 mmHg 75%
23:00 +15°C° 0 mm 5 mps 752 mmHg 73%
Show more

We Need Your Consent

Meteoprog and our Service Providers may store and access personal data such as cookies, device identifiers or other similar technologies on your device and process such data to personalise content and ads, as well as provide social media features and to analyse the traffic.

  • Store and/or access information on your device

    Cookies, device identifiers or other information can be stored or accessed on your device for the purposes indicated above.

  • Personalised ads and content, ad and content measurement, audience insights, and products development

    Ads and content can be personalised based on a profile. More data can be added to better personalise ads and content. Ad and content performance can be measured. Insights about the audience who saw the ads and content can be derived. Such data can be used to develop or improve user’s experience, systems and software.

By clicking ‘I Agree’ you will allow the use of indicated cookies, device identifiers, web beacons or other similar technologies. Your settings can be changed in the browser on your device.

For certain purposes, legitimate interests may be relied on, rather than consent. You can read more about this in our Privacy and Cookie Policy.